Regional Weather Roundup
Issued by NWS

Home | Current Version | Previous Version | Graphics & Text | Print | Product List | Glossary On
Versions: 1 2 3 4 5 6 7 8 9 10 11 12 13 14 15 16 17 18 19 20 21 22 23 24 25 26 27 28 29 30 31 32 33 34 35 36 37 38 39 40 41 42 43 44 45 46 47 48 49 50
000
ASUS43 KMPX 241301
RWRMN
WEATHER ROUNDUP FOR MINNESOTA
NATIONAL WEATHER SERVICE TWIN CITIES/CHANHASSEN MN
800 AM CDT FRI OCT 24 2014


NOTE: "FAIR" INDICATES FEW OR NO CLOUDS BELOW 12,000 FEET WITH NO
SIGNIFICANT WEATHER AND/OR OBSTRUCTIONS TO VISIBILITY. N/A MEANS
CURRENT SKY AND/OR WEATHER CONDITIONS ARE NOT AVAILABLE.

MNZ060>063-068>070-241400-
   Twin Cities Metro

CITY           SKY/WX    TMP DP  RH WIND       PRES   REMARKS
TWIN CITIES    CLOUDY    49  45  86 E7        29.89F
ST PAUL        MOCLDY    48  46  93 SE6       29.91F
CRYSTAL        MOCLDY    50  45  83 SE7       29.87F
BLAINE         MOCLDY    48  48 100 SE7       29.89S
LAKEVILLE      MOCLDY    39  39 100 CALM      29.89R FOG
EDEN PRAIRIE   MOCLDY    48  44  86 E6        29.87S
SOUTH ST PAUL  MOCLDY    47  46  95 SE3       29.90S
LAKE ELMO      FAIR      46  46 100 SE5       29.92R
$$
MNZ001>005-007-008-013>017-022>024-027-028-241400-
   Northwest Minnesota

CITY           SKY/WX    TMP DP  RH WIND       PRES   REMARKS
BEMIDJI        CLEAR     48  42  77 SW5       29.78R
HALLOCK        MOCLDY    43  37  81 S8        29.71S
ROSEAU         CLOUDY    48  41  76 S8        29.72S
WARROAD        CLOUDY    48  43  81 SW7       29.72F
THIEF RVR FALL MOCLDY    45  39  81 S8        29.76S
CROOKSTON      PTCLDY    43  39  87 S9        29.77S
FOSSTON        PTCLDY    45  39  81 CALM      29.79S
DETROIT LAKES  PTCLDY    45  43  93 S5        29.81S
MOORHEAD       PTCLDY    45  45 100 S8        29.81S
PARK RAPIDS    CLEAR     43  40  89 SE6       29.81S
MAHNOMEN       FAIR      46  42  84 S10       29.78S
$$
MNZ006-009>011-018-025>026-241400-
   North Central Minnesota

CITY           SKY/WX    TMP DP  RH WIND       PRES   REMARKS
BAUDETTE       CLOUDY    48  40  73 SW5       29.73S
FLAG ISLAND    CLOUDY    48  45  87 S6        29.69F
INTL FALLS     CLOUDY    47  41  80 CALM      29.75R
WASKISH        CLOUDY    54  43  66 CALM      29.76R
BIG FORK       CLOUDY    52  43  71 S7        29.79S
LONGVILLE      FAIR      39  37  93 SE3       29.82S
GRAND RAPIDS   CLOUDY    48  41  76 S9        29.82S
CRANE LAKE     CLOUDY    52  43  71 S7        29.79S
ORR            CLOUDY    50  41  71 S8        29.77S
COOK           CLOUDY    50  45  81 S6        29.81S
WALKER         FAIR      48  42  78 SW5       29.79F
$$
MNZ012-019>021-037-241400-
   Northeast Minnesota

CITY           SKY/WX    TMP DP  RH WIND       PRES   REMARKS
DULUTH         CLOUDY    48  45  89 S8        29.87S
ELY            CLOUDY    48  45  87 S5        29.82F
HIBBING        CLOUDY    40  37  89 CALM      29.84S
EVELETH        CLOUDY    39  37  93 CALM      29.85S FOG
DULUTH HARBOR  CLOUDY    46  45  93 CALM      29.88F FOG
TWO HARBORS    HAZE      45  34  65 CALM      29.85F VSB<1/4
SILVER BAY       N/A     46  45  93 CALM      29.85F FOG
GRAND MARAIS     N/A     47  47 100 SW5       29.88F
G MARAIS ARPRT FOG       45  41  87 S7        29.87F VSB<1/4
$$
MNZ029>031-032-039>041-046>048-054>057-064-241400-
   West Central Minnesota

CITY           SKY/WX    TMP DP  RH WIND       PRES   REMARKS
FERGUS FALLS   MOCLDY    45  39  81 SE6       29.83S
WHEATON        MOCLDY    36  36 100 CALM      29.84F
MORRIS         MOCLDY    41  39  93 S6        29.82S
ALEXANDRIA     MOCLDY    44  41  89 SE3       29.84S
ELBOW LAKE     FAIR      44  42  92 SE5       29.83R
WADENA         PTCLDY    39  37  93 CALM      29.82S
GLENWOOD       MOCLDY    43  41  93 SE5       29.84S
APPLETON       MOCLDY    39  37  93 CALM      29.83R
BENSON         MOCLDY    45  43  93 CALM      29.84R
ORTONVILLE     MOCLDY    43  39  87 CALM      29.83S FOG
MADISON        MOCLDY    43  43 100 CALM      29.84R
WILLMAR        FAIR      45  39  81 SE5       29.85S
$$
MNZ033>034-036-042>043-049>051-058-059-241400-
   Central Minnesota

CITY           SKY/WX    TMP DP  RH WIND       PRES   REMARKS
ST CLOUD       MOCLDY    49  42  77 SE7       29.86S
SAUK CENTRE    FAIR      43  40  89 CALM      29.84S
PAYNESVILLE    MOCLDY    44  41  88 CALM      29.85S
AITKIN         PTCLDY    48  45  87 S6        29.84R
PINE RIVER     CLEAR     43  39  87 SE5       29.86F
BRAINERD       CLEAR     45  40  82 S7        29.85S
STAPLES        PTCLDY    43  41  93 CALM      29.83S
LONG PRAIRIE   FAIR      41  37  87 SE7       29.84S
LITTLE FALLS   PTCLDY    45  37  76 SE6       29.85S
LITCHFIELD     CLOUDY    48  45  87 SE3       29.86S
BUFFALO        MOCLDY    47  42  80 CALM      29.88R
MAPLE LAKE     MOCLDY    49  45  86 SE3       29.88R
$$
MNZ037-044-045-052-053-241400-
   East Central Minnesota

CITY           SKY/WX    TMP DP  RH WIND       PRES   REMARKS
PRINCETON      PTCLDY    46  45  93 E5        29.88R
MORA           FOG       36  36 100 CALM      29.90R VSB 1/4
CAMBRIDGE      FAIR      48  41  76 SE6       29.87R
RUSH CITY      MOCLDY    45  44  97 SE5       29.89S
MOOSE LAKE     CLOUDY    45  45 100 S6        29.86S FOG
HINCKLEY       FOG       43  43 100 CALM      29.89F VSB<1/4
CLOQUET        CLOUDY    46  45  93 CALM      29.87S FOG
MCGREGOR       MOCLDY    46  43  87 S6        29.86S
$$
MNZ071>073-080-081-089-090-097-098-241400-
   Southwest Minnesota

CITY           SKY/WX    TMP DP  RH WIND       PRES   REMARKS
MONTEVIDEO     MOCLDY    45  43  93 CALM      29.84S
GRANITE FALLS  MOCLDY    42  41  95 CALM      29.85R
CANBY          CLOUDY    49  46  92 W3        29.85S
MARSHALL       MOCLDY    50  45  81 NW5       29.83R
REDWOOD FALLS  CLOUDY    43  41  93 SE5       29.83S
OLIVIA         MOCLDY    45  41  87 SE5       29.83F
PIPESTONE      MOCLDY    48  46  93 CALM      29.85R FOG
WINDOM         MOCLDY    52  48  87 S9        29.83F
WORTHINGTON    PTCLDY    52  48  87 SW13      29.84F
JACKSON        PTCLDY    52  48  87 SW9       29.85F
TRACY          MOCLDY    53  50  90 SW9       29.83S
SLAYTON        PTCLDY    50  49  96 SW8       29.84S
$$
MNZ065>067-074>077-082>085-091>093-241400-
   South Central Minnesota

CITY           SKY/WX    TMP DP  RH WIND       PRES   REMARKS
MANKATO        MOCLDY    54  45  71 S8        29.87R
NEW ULM        MOCLDY    46  45  93 SE3       29.85S
ST JAMES       MOCLDY    52  46  82 SE5       29.86R
FAIRMONT       MOCLDY    52  45  76 S10       29.86S
GLENCOE        MOCLDY    50  46  85 S3        29.86R
FARIBAULT      MOCLDY    52  46  82 SE6       29.89S
OWATONNA       PTCLDY    52  46  82 SE10      29.89S
WASECA         MOCLDY    48  43  81 SE10      29.89S
ALBERT LEA     CLEAR     48  46  93 S10       29.90F
$$
MNZ078>079-086>088-094>096-241400-
   Southeast Minnesota

CITY           SKY/WX    TMP DP  RH WIND       PRES   REMARKS
ROCHESTER      FOG       46  45  96 S12       29.93F VSB 1/4
RED WING       CLOUDY    48  48 100 SE9       29.92S
STANTON        MOCLDY    51  46  82 S6        29.88F
DODGE CENTER   MOCLDY    48  46  93 S9        29.91F
WINONA         CLOUDY    52  50  93 SE5       29.97F
AUSTIN         CLEAR     46  46 100 SE7       29.92F FOG
PRESTON        FOG       47  46  99 SE8       29.96F VSB<1/4
$$
ABBREVIATIONS USED IN REMARKS
   TC - TEMPERATURES IN CELSIUS
  WCI - WIND CHILL INDEX
   HX - HEAT INDEX
  VSB - VISIBILITY
$$



USA.gov is the U.S. government's official web portal to all federal, state and local government web resources and services.